Location: Rounton
(54.4000°N, 1.3500°W)
Time: 14:21:55
(UTC+00:00)

Transit 2A Rocket - Pass Details

Date: 05 December 2021
Orbit: 584 x 918 km, 66.7° (Epoch: 17 January)

Event Time Altitude Azimuth Distance (km) Brightness Sun altitude
Rises 14:15:23 0° 315° (NW) 3,562 8.3 7.5°
Reaches altitude 10° 14:18:01 10° 320° (NW) 2,623 7.6 7.3°
Maximum altitude 14:24:00 50° 36° (NE) 1,148 5.7 6.9°
Drops below altitude 10° 14:29:47 10° 111° (ESE) 2,535 7.6 6.4°
Sets 14:32:18 0° 117° (ESE) 3,433 8.3 6.2°
